Starlink 31686

operational
NORAD ID: 59579 Int'l Des: 2024-076 Owner: SPXS Country: US Constellation: starlink
LEOCIRCULAR

About Starlink 31686

Description loading...

Live Position

Loading 3D Globe...

Upcoming Passes

Altitude History

Altitude vs Time

uPlot chart will show altitude changes over time

Two-Line Element Set

1 59579U 24076R 25344.48544396 .00000725 00000-0 35877-4 0 9993
2 59579 43.0007 152.4617 0001271 270.2631 89.8075 15.27580459 92867
Epoch: Dec 10, 2025 • Age: 8 hours

Current Status

Altitude 487.0 km
Velocity 7.63 km/s
Sub-Earth Point 42.64°N, 127.24°W
Launch Date Apr 23, 2024
Age 1.6 years
Type internet

Technical Details

Classification Payload
Mass 730.00 kg
Dry Mass 700.00 kg
Total Mass 730.00 kg
Length 0.30 m
Diameter 4.10 m
Span 29.00 m
Shape Box + pan
Manufacturer SPXS
Bus Type Starlink V2M
Phase Status In Orbit
Owner/State SPXS/US

Large Constellations

Loading constellations...